Tracking 18665 objects as of 22-June-2017
HD Live streaming from Space Station
objects crossing your sky now

METEOR 1-26

Track METEOR 1-26 now!
10-day predictions
METEOR 1-26 is classified as:


NORAD ID: 9481
Int'l Code: 1976-102A
Perigee: 849.9 km
Apogee: 884.8 km
Inclination: 81.2 °
Period: 102.1 minutes
Semi major axis: 7238 km
RCS: 4.3206 m2 (large)
Launch date: October 15, 1976
Source: Commonwealth of Independent States (former USSR) (CIS)
Launch site: PLESETSK MISSILE AND SPACE COMPLEX (PKMTR)
Your satellite tracking list
Your tracking list is empty





NASA's NSSDC Master Catalog

Two Line Element Set (TLE):
1  9481U 76102A   17172.94449973 +.00000131 +00000-0 +67391-4 0  9990
2  9481 081.2173 008.0713 0024112 185.1597 174.9329 14.09755304091150
Source of the keplerian elements: AFSPC